Weather in Volkovitsy

Russia / Saint-Petersburg and Leningrad Oblast     59°38′52″N   29°49′11″E
temp.,
°C
wind,
m/s
gust,
m/s
humid.,
%
clouds,
%
prec.,
mm/h
press.,
hPa
HPBL,
m
14 april, wed
wed1400:00+4wnw4862100 0.0 1020478
03:00+3nw3864100 0.1 1020526
06:00+2nw3675100 0.0 1019289
09:00+3wnw376999 0.1 1020352
12:00+7nw454636 0.0 1020931
15:00+8nw454176 0.0 10211012
18:00+7nw455285 0.0 1022714
21:00+3nw4975100 0.0 1024307
15 april, thu
thu1500:00+2n2774100 0.0 1026152
03:00+1nne2679100 0.0 1027132
06:00−1nne288366 0.0 1028180
09:00+3ne496327 0.0 1030663
12:00+6ne57425 0.0 10301069
15:00+7ne57381 0.0 10301174
18:00+6ne58431 0.0 1030967
21:00+3ne411584 0.0 1031380
16 april, fri
fri1600:00+1ne311732 0.0 1031266
03:000ne310801 0.0 1031233
06:00−1ne310815 0.0 1032247
09:00+4ene510565 0.0 1032509
12:00+8ene683814 0.0 1032933
15:00+9ene6837100 0.0 10311003
18:00+7ne51047100 0.0 1031627
21:00+4ne41256100 0.0 1032348
17 april, sat
sat1700:00+3ene3116996 0.0 1033264
03:00+2ene3117986 0.0 1034228
06:000e3108138 0.0 1034212
09:00+5e496039 0.0 1035375
12:00+10e574022 0.0 1034948
15:00+13e563423 0.0 10341334
18:00+12e46425 0.0 10331234
21:00+6ene376925 0.0 1034146
18 april, sun
sun1800:00+4e23735 0.0 103445
03:00+3se23755 0.0 103454
06:00+3ese227810 0.0 103434
09:00+8ese35615 0.0 1034298
12:00+12ese45445 0.0 10331356
15:00+13ese45365 0.0 10321792
18:00+13ese35406 0.0 10311882
21:00+7ene35675 0.0 1032102